Theta_e
305 304 305 307 306 304 299 296 287 298 301 286 287 286 293 296 296 297 293 293 293 291 292 290 290 290 292 298 298 292 295 290 285 287 293 294 293 289 289 284 282 285 284 283
304 302 301 306 305 304 298 292 289 297 297 283 284 290 292 294 292 293 292 291 293 294 291 287 290 292 294 295 293 290 293 288 281 283 288 291 288 290 290 289 288 282 279 281
303 304 302 304 305 304 298 291 284 287 289 289 288 287 289 290 294 293 293 292 294 291 289 292 289 290 292 294 294 292 293 288 285 281 283 288 285 287 289 287 282 282 283 284
302 302 304 304 304 304 297 290 288 291 281 283 288 291 290 289 288 292 294 291 291 290 286 288 288 291 291 292 290 291 291 284 287 287 286 286 286 285 286 284 285 282 283 283
301 302 301 301 304 303 293 289 290 293 292 290 287 290 289 288 289 290 288 289 291 291 288 289 286 290 289 287 289 289 291 283 286 283 286 285 282 284 285 285 285 284 284 283
302 302 301 300 304 300 291 296 299 295 291 289 288 288 289 290 292 293 293 292 291 290 291 293 294 294 294 291 288 287 287 285 282 278 284 282 278 282 283 285 286 286 281 286
301 302 300 302 303 301 299 301 299 291 287 289 289 290 290 290 291 289 293 294 291 293 297 295 294 293 291 291 290 291 286 285 283 279 280 272 284 289 288 285 287 287 287 287
301 299 301 303 303 302 299 300 295 292 288 290 290 290 290 292 293 290 291 292 295 296 292 286 282 282 283 285 287 287 288 285 280 277 277 282 284 285 283 281 282 285 284 286
301 300 299 302 302 303 298 298 299 294 287 289 293 290 291 289 288 289 291 294 297 295 291 285 278 276 280 279 282 287 286 287 284 281 276 274 282 287 290 287 278 283 283 282
300 301 302 302 302 301 298 297 302 296 288 293 294 289 289 293 291 288 289 290 290 294 288 283 281 280 285 279 279 280 281 283 280 280 279 279 285 288 289 277 277 282 281 281
301 302 301 301 301 301 298 297 301 296 289 293 294 295 292 294 292 287 290 288 289 288 284 283 284 283 284 283 284 282 281 279 279 282 279 276 287 287 282 282 284 282 281 282
300 300 300 300 299 299 300 294 301 302 293 292 298 297 297 296 296 294 293 290 290 291 286 287 286 284 287 285 279 288 282 284 283 280 279 283 285 283 285 287 284 282 281 281
300 299 300 300 299 300 300 295 299 298 294 292 293 291 296 299 299 302 290 292 294 292 296 294 290 285 288 282 284 285 287 290 283 283 282 282 283 284 285 285 283 283 283 282
299 299 300 300 300 300 300 295 301 299 294 287 288 297 294 299 299 299 300 297 297 296 296 293 291 287 292 287 288 287 288 289 284 281 283 283 283 284 283 283 283 282 283 282
299 300 300 299 300 301 301 299 301 301 294 287 287 294 296 298 298 296 297 296 295 293 290 291 288 291 290 291 290 286 290 286 284 284 286 286 283 284 284 282 281 282 282 281
299 300 300 300 301 301 299 291 300 302 300 292 285 293 293 296 297 296 295 296 296 294 291 290 291 294 291 286 284 287 290 291 291 287 289 286 285 285 285 283 283 284 283 283
299 299 300 300 300 299 293 292 295 296 301 295 286 285 292 295 295 295 294 296 294 294 291 289 289 290 291 289 284 287 288 289 289 288 286 282 284 282 285 284 284 284 284 283
299 299 299 298 298 297 294 296 298 298 300 296 287 285 287 295 290 289 295 291 293 293 291 291 289 290 290 284 287 287 287 287 287 287 289 286 287 286 285 284 284 282 281 282
299 299 299 298 297 293 293 295 296 303 297 289 287 283 282 294 291 293 292 293 288 292 289 289 289 288 283 287 286 286 285 285 285 287 287 286 285 284 284 283 283 281 281 281
296 294 294 290 293 294 295 297 294 295 292 293 288 291 285 290 292 290 289 290 287 283 287 291 286 285 289 291 289 288 287 288 287 285 283 284 283 283 283 283 284 283 281 281
294 292 289 294 294 296 292 288 287 288 285 290 290 289 287 293 288 287 290 286 287 281 285 284 283 282 286 290 289 289 289 288 288 289 288 287 286 284 284 283 283 282 282 280
294 295 296 296 292 289 284 283 285 285 282 288 289 289 291 291 294 288 288 284 285 279 289 283 279 284 287 288 288 289 288 287 288 289 288 287 286 285 284 282 281 278 275 274
297 292 288 288 286 280 280 276 280 283 287 290 291 288 291 291 292 288 286 281 281 288 282 280 282 285 286 287 287 287 288 287 288 287 287 286 285 284 282 278 275 276 274 274
289 285 279 282 280 282 283 285 285 288 291 291 292 288 289 291 286 286 281 284 284 279 278 279 283 284 285 285 286 286 285 285 286 284 282 280 278 277 276 276 276 274 272 272
286 286 279 281 284 286 287 288 288 289 293 292 290 289 289 285 282 284 282 279 277 280 280 283 285 285 284 284 284 284 283 283 282 281 279 277 276 276 275 275 275 273 272 272
286 285 282 286 285 284 285 286 286 292 293 294 291 286 284 281 283 280 279 279 279 281 282 283 284 283 283 283 283 282 282 282 280 278 277 276 275 274 275 275 272 272 272 270
285 283 285 286 286 284 285 288 289 294 291 286 286 281 280 286 281 280 284 281 282 282 282 284 284 283 282 281 281 280 280 279 278 277 276 276 277 275 273 272 272 274 273 272
Wind_Speed
13 8 16 23 20 16 5 2 4 7 5 3 2 7 7 4 15 11 8 5 10 13 11 12 11 9 7 6 15 17 20 4 6 12 10 4 6 8 5 4 2 2 2 2
15 14 10 23 22 22 6 3 3 2 4 5 6 10 16 12 12 12 11 11 11 10 10 7 9 2 6 3 4 2 9 6 7 3 8 9 10 12 11 8 7 6 3 2
17 18 15 18 23 25 4 3 5 3 2 3 9 13 15 17 10 12 13 8 7 11 11 12 4 6 7 5 6 5 3 8 10 6 6 6 12 12 8 6 2 6 6 7
17 15 18 23 24 20 5 3 5 9 8 8 13 14 11 18 13 16 11 9 13 12 10 13 14 6 8 7 3 5 3 5 9 8 2 3 4 5 6 8 8 8 8 8
19 19 15 14 24 21 3 3 4 7 6 20 23 15 13 16 17 11 15 14 14 13 12 10 7 11 11 7 6 5 4 2 7 10 9 6 8 7 8 9 10 11 10 4
21 20 21 22 24 15 3 5 6 6 5 9 18 18 13 17 13 15 12 13 8 10 8 6 4 5 6 4 11 8 7 5 3 10 7 2 7 6 8 7 6 8 6 12
19 21 17 24 25 20 5 2 3 3 6 12 16 20 22 18 11 9 11 11 4 1 10 5 5 6 5 5 8 6 4 5 3 1 5 5 10 8 4 4 11 11 9 10
18 15 14 27 26 24 2 1 2 2 4 10 18 20 15 16 8 6 9 8 6 10 11 9 5 2 3 5 5 6 6 5 4 3 8 7 8 7 3 2 6 8 7 7
20 22 21 22 23 25 7 1 3 3 2 8 15 14 14 6 6 8 12 9 8 9 4 5 6 6 8 7 7 8 7 7 4 5 6 6 7 5 8 5 5 7 6 6
24 23 26 23 22 22 7 3 4 3 2 3 1 5 12 6 11 8 10 8 4 5 3 4 4 4 4 8 9 9 7 7 8 7 6 4 1 4 1 4 5 7 5 6
24 25 23 22 19 19 8 2 5 3 2 8 9 4 3 10 4 8 12 6 4 5 6 5 3 2 2 5 2 9 7 6 6 7 8 5 8 3 3 5 7 9 6 9
22 21 20 21 19 17 13 2 4 4 3 3 8 10 11 7 4 7 10 3 12 5 6 4 1 2 1 6 5 3 2 2 3 5 4 5 8 10 5 5 9 8 8 8
22 20 18 18 20 17 10 1 5 3 3 4 3 5 8 7 5 5 4 2 4 2 3 2 0 2 5 5 3 6 4 6 4 6 6 6 7 8 8 9 10 9 10 10
17 16 14 15 15 17 11 4 3 2 1 3 5 4 4 4 4 5 6 8 3 4 4 1 1 1 4 3 5 3 2 7 9 5 8 9 6 8 10 11 10 11 11 11
14 15 13 15 15 18 8 5 4 2 3 3 6 9 7 6 7 8 7 7 6 4 3 1 2 3 3 2 4 5 3 3 4 1 15 2 12 10 12 12 11 11 12 12
12 16 18 18 15 13 3 2 5 3 7 3 4 3 5 6 7 7 5 1 1 1 2 2 4 2 2 3 3 2 7 6 4 4 11 12 13 11 11 12 11 12 12 12
13 13 14 13 11 4 1 1 2 5 4 2 5 5 2 2 2 2 4 1 1 1 1 2 3 3 3 2 3 8 9 9 12 15 18 11 14 8 12 12 12 13 12 11
11 12 12 10 10 11 4 2 2 5 1 2 2 4 5 5 3 3 3 2 2 3 3 1 1 3 2 3 6 12 11 10 10 13 0 13 12 15 14 13 12 12 11 10
13 14 15 6 4 3 3 2 8 3 2 1 4 6 4 3 2 2 1 2 1 0 1 1 1 3 2 7 12 13 12 9 10 6 13 15 14 14 13 13 12 11 10 9
8 4 3 3 3 2 2 2 2 1 1 2 3 5 4 4 2 1 3 2 2 3 2 3 1 2 4 10 12 12 11 11 11 13 13 12 13 12 12 11 10 10 10 9
3 3 2 4 2 3 0 2 2 2 2 3 4 6 6 5 3 3 2 2 0 3 3 2 4 3 6 8 12 9 8 10 9 10 11 10 11 10 10 9 9 10 10 9
4 6 6 2 1 1 3 3 1 4 4 3 6 8 6 2 1 3 1 1 1 1 2 2 2 4 10 9 9 10 10 7 6 10 12 11 10 9 10 10 10 12 12 10
4 2 3 2 1 3 4 5 3 4 3 2 6 5 3 3 4 3 2 1 1 2 2 2 3 8 8 9 10 12 8 8 6 10 9 12 12 11 11 12 10 11 9 8
2 3 4 2 4 1 4 6 5 2 3 5 7 4 3 2 4 1 2 2 2 3 3 3 6 7 7 9 9 10 10 9 11 12 13 13 13 12 12 10 9 10 9 7
3 3 3 3 2 4 3 3 4 2 4 6 5 3 3 3 3 1 2 3 4 3 3 3 6 9 7 9 10 10 10 10 10 10 10 11 11 11 11 9 8 9 8 6
3 5 2 3 6 4 4 4 3 2 2 4 3 2 2 2 4 3 3 3 2 4 3 3 7 9 8 9 9 8 8 9 9 9 10 10 10 10 11 10 8 7 7 7
3 3 2 2 6 5 3 2 1 2 1 0 2 2 1 1 3 4 1 3 3 3 3 3 6 9 9 9 9 8 9 10 10 10 10 10 10 11 11 11 9 10 8 6
Wind_Direction
255 220 233 207 191 182 141 281 227 154 161 155 228 215 206 222 231 216 237 282 262 255 251 260 242 226 322 38 169 184 213 236 239 235 233 264 244 231 184 248 313 229 355 2
244 241 245 216 185 177 148 214 125 163 191 202 196 244 231 252 235 215 217 230 242 242 239 252 266 229 202 275 268 169 142 235 238 262 253 222 217 224 220 210 217 269 296 299
250 239 226 219 187 188 108 195 151 161 232 283 229 207 237 220 229 235 228 234 237 237 230 234 245 177 191 201 236 46 177 235 224 247 308 316 215 236 235 229 219 307 298 77
247 232 229 198 200 178 126 218 212 180 178 216 243 219 219 224 214 214 221 225 221 221 227 232 228 180 160 191 127 184 195 246 248 250 224 313 315 282 242 254 269 260 294 319
226 204 189 225 198 164 174 207 242 191 223 200 208 229 222 216 215 212 211 213 209 216 226 220 229 165 185 171 173 159 171 246 245 251 245 255 275 266 270 280 285 288 284 289
220 210 207 214 192 150 164 230 266 287 245 201 192 221 230 230 225 210 231 219 202 220 178 259 288 234 159 171 155 194 178 211 213 242 213 273 273 282 280 302 319 324 271 55
228 219 223 217 183 184 205 232 281 257 250 212 214 216 219 232 230 196 173 166 148 183 133 99 85 112 131 124 208 195 211 190 191 247 134 219 89 64 25 2 53 24 31 36
210 194 234 174 186 185 185 82 316 266 260 255 219 210 210 226 179 197 173 83 138 155 150 124 113 135 129 196 206 202 220 200 215 195 221 117 156 72 84 55 82 25 1 6
217 199 198 190 184 184 181 306 267 281 308 242 212 196 195 166 153 182 108 110 151 178 179 173 209 178 190 170 177 208 211 227 232 199 252 229 101 56 106 133 168 39 23 340
226 208 179 176 174 185 184 223 220 261 265 313 111 176 187 137 192 140 132 128 145 216 199 215 221 236 151 151 173 172 182 203 217 225 235 100 230 13 42 234 74 71 34 16
173 159 162 166 169 170 170 233 258 285 310 52 85 78 118 182 137 149 153 149 177 172 205 218 178 233 172 102 320 173 190 196 206 243 222 186 10 227 288 87 95 93 77 78
131 148 156 157 156 172 186 204 252 206 272 65 70 54 33 49 2 208 158 178 171 169 214 224 137 176 103 141 167 141 163 46 65 8 52 90 63 85 98 83 106 102 107 100
150 155 154 155 168 175 183 109 255 190 173 91 44 22 16 29 31 17 188 147 102 168 13 333 126 173 183 181 130 132 142 176 88 189 125 112 101 96 103 101 110 110 104 101
146 152 162 173 167 179 170 212 226 316 141 132 71 76 51 42 62 63 54 87 106 123 248 224 254 135 34 43 132 122 111 148 126 84 115 120 129 127 122 117 113 110 112 111
142 139 135 126 168 190 185 239 238 263 311 113 120 89 60 76 91 106 119 136 163 186 182 197 158 102 84 105 119 109 79 119 190 336 158 55 137 143 136 129 126 128 119 112
123 142 164 169 173 167 163 94 219 224 219 140 122 109 99 91 92 88 91 81 339 356 38 51 75 72 143 156 94 103 91 78 84 93 93 107 131 140 137 133 137 122 119 117
110 119 133 148 151 157 216 183 52 313 306 100 120 131 133 354 138 134 131 95 11 355 118 37 118 154 249 159 144 156 102 101 105 111 109 126 145 143 139 139 126 123 118 120
139 145 143 143 130 124 166 57 311 342 225 210 124 94 150 215 189 123 281 126 153 349 67 210 193 116 278 100 140 118 117 122 136 148 128 147 135 139 136 135 137 129 123 120
114 111 126 134 236 143 89 312 301 253 281 147 154 156 136 180 76 109 149 323 95 14 208 148 245 141 204 139 156 139 148 155 145 152 128 138 142 135 141 140 142 130 128 121
141 184 153 125 69 305 235 190 93 350 336 303 149 94 129 145 163 51 110 321 171 171 163 85 296 79 125 140 149 138 166 147 159 141 147 145 144 146 149 148 141 134 132 130
204 85 73 89 125 226 77 129 172 162 165 171 107 135 129 160 160 152 42 169 103 245 122 228 183 180 136 116 140 142 140 152 158 158 145 146 144 141 143 136 119 122 125 116
59 94 111 154 140 150 124 140 144 239 129 171 152 144 120 106 99 90 226 182 204 296 199 240 234 98 120 128 124 129 127 130 141 140 142 138 134 126 113 109 103 90 95 99
169 157 79 156 69 158 199 162 198 130 136 206 122 106 122 148 62 35 96 79 137 254 198 218 60 128 116 123 121 121 117 97 121 124 113 112 106 102 107 96 101 107 107 104
90 119 103 289 156 141 24 32 72 78 150 130 97 52 64 82 55 293 147 77 237 248 236 100 140 138 126 125 126 124 118 104 105 103 99 99 96 93 97 106 111 118 117 117
47 26 66 68 73 63 70 97 109 16 123 119 133 147 101 96 112 146 82 174 228 239 35 61 124 121 114 118 117 111 114 115 113 113 110 107 109 111 110 110 121 113 121 128
60 37 109 133 113 106 94 82 69 7 164 149 116 163 102 163 141 172 212 270 16 70 65 97 120 120 115 118 115 116 122 127 125 119 120 121 123 130 129 114 117 124 122 120
39 62 315 51 66 61 66 82 118 233 168 79 114 98 82 172 217 169 109 25 67 110 101 100 125 133 125 120 120 124 123 126 129 128 129 129 122 117 130 132 143 141 136 131